Location: Lombard
(41.8800°N, 88.0080°W)
Time: 04:52:50
(UTC-05:00)

Vanguard 2 Rocket - Pass Details

Date: 27 February 2024
Orbit: 555 x 3307 km, 32.9° (Epoch: 12 April)

Event Time Altitude Azimuth Distance (km) Brightness Sun altitude
Rises 20:45:44 0° 274° (W) 6,353 12.1 -34.8°
Reaches altitude 10° 20:51:21 10° 260° (W) 5,717 11.5 -35.8°
Maximum altitude 21:02:46 20° 221° (SW) 5,319 10.8 -37.7°
Drops below altitude 10° 21:15:13 10° 182° (S) 6,199 10.9 -39.8°
Enters shadow 21:16:36 - 178° (S) 6,356 10.9 -40.0°
Sets 21:21:55 0° 168° (SSE) 7,021 - -40.8°
